Estación meteorológica de Calldetenes (Osona, Plana de Vic)

Consulta los datos en tiempo real de la estación meteorológica de Calldetenes





Hora UTC 11:10
Temperatura 19.9 ºC
Suelo 15 cm 21.9 ºC
Humedad 56.0 %
Presión 1012.2 hPa
Pluja 0.1 mm
Velocidad viento 15.2 km/h
Dirección viento SW
Radiación solar 906.0 W/m²

Webcam

Datos diarios 2026-05-10



Hora UTC (invierno +1h; verano +2h)
Temperatura (ºC) Humedad (%) Presión (hPa) Velocidad viento (km/h) Precipitación (mm) Radiación solar (W/m²)
Hora UTC Aire Suelo 15 cm Humedad Presión Vel. Dir. Vel. Max Dir. Intent. máx 5 min. Rad. Sol.
00:05 11.3 11.1 100.0 1013.7 0.4 S 0.4 S 0.0 0.1
00:10 11.2 11.0 100.0 1013.7 1.5 SE 2.5 ESE 0.0 0.1
00:15 11.2 10.9 100.0 1013.5 2.6 SW 3.9 SSW 0.0 0.1
00:20 11.2 10.8 100.0 1013.5 2.8 SSW 4.9 SSW 0.0 0.1
00:25 11.3 10.8 100.0 1013.3 3.1 SSW 5.6 SSW 0.0 0.1
00:30 11.2 10.8 100.0 1013.3 2.8 S 4.2 SSW 0.0 0.1
00:35 11.1 10.8 100.0 1013.2 2.2 S 3.5 S 0.1 0.1
00:40 11.1 10.7 100.0 1013.2 2.8 SSW 4.6 SSW 0.0 0.1
00:45 10.7 10.5 100.0 1013.0 1.0 SSW 3.5 SSW 0.0 0.1
00:50 10.4 10.1 100.0 1013.0 3.5 S 5.3 S 0.0 0.1
00:55 10.2 9.8 100.0 1012.9 2.7 SSW 4.9 S 0.0 0.1
01:00 10.1 9.6 100.0 1012.9 1.6 SSW 4.2 S 0.0 0.1
01:05 10.0 9.4 100.0 1013.0 1.6 E 3.2 ENE 0.0 0.1
01:10 10.0 9.4 100.0 1013.0 0.2 E 1.4 E 0.0 0.1
01:15 9.8 9.3 100.0 1013.0 1.4 E 3.9 E 0.0 0.1
01:20 9.8 9.2 100.0 1013.0 3.8 E 4.9 E 0.0 0.1
01:25 9.8 9.3 100.0 1012.9 3.2 E 4.2 ESE 0.0 0.1
01:30 9.7 9.2 100.0 1012.9 1.7 ESE 4.2 E 0.0 0.1
01:35 9.4 9.0 100.0 1012.8 2.5 ESE 4.9 ESE 0.0 0.1
01:40 9.3 8.7 100.0 1012.8 4.3 SE 5.3 ESE 0.0 0.1
01:45 9.1 8.6 100.0 1012.9 4.1 ESE 5.6 ESE 0.0 0.1
01:50 8.7 8.4 99.9 1012.9 4.0 ESE 6.4 ESE 0.0 0.1
01:55 9.0 8.3 100.0 1012.9 5.5 ESE 7.1 ESE 0.0 0.1
02:00 9.0 8.5 100.0 1012.9 2.5 SE 4.9 SE 0.0 0.1
02:05 8.5 8.4 100.0 1013.0 2.8 SE 4.9 SE 0.0 0.1
02:10 8.3 8.1 100.0 1013.0 3.4 ESE 4.9 SE 0.0 0.1
02:15 8.1 7.8 100.0 1012.9 2.8 ESE 4.2 ESE 0.0 0.1
02:20 8.5 7.7 100.0 1012.9 3.6 SE 5.6 ESE 0.0 0.1
02:25 8.5 7.8 100.0 1012.9 2.2 SE 4.6 ESE 0.0 0.1
02:30 8.0 7.7 100.0 1012.9 5.3 ESE 8.1 ESE 0.0 0.1
02:35 7.9 7.6 100.0 1013.0 6.2 E 7.8 E 0.0 0.1
02:40 8.3 7.7 100.0 1013.0 6.3 ESE 8.1 ESE 0.0 0.1
02:45 8.6 8.0 100.0 1013.0 7.1 ESE 8.8 ESE 0.0 0.1
02:50 8.4 8.0 100.0 1013.0 6.4 ESE 8.1 ESE 0.0 0.1
02:55 8.0 7.8 100.0 1013.0 6.3 ESE 8.5 ESE 0.0 0.1
03:00 7.8 7.5 100.0 1013.0 6.7 ESE 8.1 ESE 0.0 0.1
03:05 7.7 7.4 100.0 1012.9 4.5 ESE 6.7 ESE 0.0 0.1
03:10 7.4 7.2 100.0 1012.9 5.8 ESE 7.8 ESE 0.0 0.1
03:15 7.8 7.3 100.0 1012.8 7.1 ESE 8.1 ESE 0.0 0.1
03:20 8.2 7.6 100.0 1012.8 4.9 ESE 7.4 ESE 0.0 0.1
03:25 8.3 7.8 100.0 1012.7 6.9 ESE 8.1 ESE 0.0 0.1
03:30 8.6 8.1 100.0 1012.7 4.9 SE 6.7 ESE 0.0 0.1
03:35 8.4 8.3 100.0 1012.7 2.5 ESE 6.4 E 0.0 0.1
03:40 8.2 8.1 100.0 1012.7 7.6 ESE 9.5 ESE 0.0 0.1
03:45 8.5 8.2 100.0 1012.5 5.3 ESE 7.8 ESE 0.0 0.1
03:50 8.5 8.3 100.0 1012.5 2.2 SE 4.9 SE 0.0 0.2
03:55 8.4 8.3 100.0 1012.5 1.3 NW 2.8 NNE 0.0 0.1
04:00 8.4 8.2 100.0 1012.5 1.1 NE 2.5 N 0.0 0.1
04:05 8.5 8.2 100.0 1012.5 0.9 ESE 2.1 ENE 0.0 0.1
04:10 8.4 8.1 100.0 1012.5 1.6 SSE 2.8 SSE 0.0 0.1
04:15 8.3 8.0 100.0 1012.5 0.2 S 1.8 S 0.0 0.1
04:20 8.2 7.8 100.0 1012.5 1.5 S 2.5 SSE 0.0 0.2
04:25 8.4 7.8 100.0 1012.5 1.7 S 3.2 SSW 0.0 0.5
04:30 8.4 8.0 100.0 1012.5 3.5 S 5.6 S 0.0 1.0
04:35 8.3 8.0 100.0 1012.6 3.5 SSW 6.7 SSW 0.0 2.0
04:40 8.3 8.0 100.0 1012.6 3.2 SSW 5.6 SSW 0.0 3.5
04:45 8.3 8.0 100.0 1012.6 2.9 SSW 5.6 S 0.0 6.0
04:50 8.1 7.9 100.0 1012.6 3.4 S 5.3 SSE 0.0 7.7
04:55 8.0 7.9 100.0 1012.6 2.2 S 3.9 SSW 0.0 12.1
05:00 7.9 7.9 100.0 1012.6 1.8 SE 3.2 SSE 0.0 14.3
05:05 7.6 7.6 100.0 1012.6 2.3 ESE 5.6 E 0.0 21.8
05:10 7.5 7.4 100.0 1012.6 3.7 E 5.6 ESE 0.0 24.3
05:15 7.8 7.4 100.0 1012.6 4.2 ESE 5.3 ESE 0.0 33.7
05:20 7.9 7.6 100.0 1012.6 3.9 ESE 5.6 ESE 0.0 38.0
05:25 8.0 7.8 100.0 1012.5 5.5 ESE 7.8 SE 0.0 39.9
05:30 8.2 7.9 100.0 1012.5 3.3 E 6.0 E 0.0 39.7
05:35 8.1 8.0 100.0 1012.5 5.0 ESE 7.1 ESE 0.0 27.8
05:40 8.3 8.0 100.0 1012.5 3.2 ESE 4.9 ESE 0.0 27.7
05:45 8.3 8.0 100.0 1012.5 3.1 E 4.9 E 0.0 30.1
05:50 8.4 8.0 100.0 1012.5 1.7 E 4.2 ESE 0.0 32.3
05:55 8.7 8.1 100.0 1012.6 3.5 NE 4.9 NE 0.0 34.7
06:00 9.1 8.3 100.0 1012.6 2.3 ENE 3.9 NE 0.0 36.3
06:05 9.2 8.5 100.0 1012.6 1.3 NE 2.1 NE 0.0 37.2
06:10 9.5 8.7 100.0 1012.6 0.6 NNE 2.5 N 0.0 38.7
06:15 9.8 8.8 100.0 1012.6 2.3 NE 3.5 NE 0.0 40.8
06:20 10.0 9.2 100.0 1012.6 1.1 NE 2.8 ENE 0.0 41.9
06:25 10.2 9.4 100.0 1012.6 1.9 NNE 6.0 NNE 0.0 197.5
06:30 10.6 9.7 100.0 1012.6 2.5 N 6.0 NNE 0.0 213.4
06:35 10.8 10.0 100.0 1012.7 3.3 NNE 6.0 NNE 0.0 208.6
06:40 10.9 10.2 100.0 1012.7 1.8 NNE 4.6 NE 0.0 302.2
06:45 11.0 10.4 100.0 1012.7 3.1 NE 6.0 NE 0.0 370.5
06:50 11.3 10.8 100.0 1012.7 2.3 NE 4.2 ENE 0.0 395.9
06:55 11.7 11.2 100.0 1012.8 4.1 N 6.7 NNW 0.0 332.3
07:00 11.4 11.4 100.0 1012.8 3.7 NNW 6.7 NNW 0.0 280.9
07:05 11.4 11.4 100.0 1012.8 2.5 NNE 7.4 NNE 0.0 307.8
07:10 11.6 11.4 100.0 1012.8 4.9 N 7.8 NNE 0.0 255.9
07:15 11.5 11.5 100.0 1012.8 4.2 ENE 7.4 ENE 0.0 448.8
07:20 12.0 11.7 100.0 1012.8 6.8 ENE 9.2 ENE 0.0 534.3
07:25 12.3 12.2 100.0 1012.9 6.1 ENE 9.9 NNE 0.0 521.8
07:30 12.4 12.3 98.5 1012.9 5.4 NE 8.1 NNE 0.0 487.5
07:35 12.5 12.1 97.1 1012.9 6.3 NE 10.6 NE 0.0 515.0
07:40 12.7 12.2 94.2 1012.9 5.1 NE 8.5 NNE 0.0 488.6
07:45 13.0 12.3 94.5 1012.9 5.1 NE 11.3 NE 0.0 413.5
07:50 13.0 12.5 91.0 1012.9 4.6 NNE 7.4 N 0.0 155.2
07:55 12.9 12.3 91.3 1013.0 3.8 NNE 6.7 NNE 0.0 223.1
08:00 12.9 12.2 91.5 1013.0 5.2 N 8.8 NNE 0.0 507.0
08:05 13.1 12.1 91.5 1013.0 6.5 NNE 9.5 NNE 0.0 593.7
08:10 13.4 12.2 90.5 1013.0 5.2 NE 9.5 ENE 0.0 631.8
08:15 13.7 12.5 89.8 1013.0 5.4 ENE 8.1 ENE 0.0 676.5
08:20 13.9 12.8 89.5 1013.0 3.8 ENE 6.7 NE 0.0 698.9
08:25 14.2 13.2 86.8 1013.0 4.3 NNW 9.2 N 0.0 623.6
08:30 14.0 13.5 84.0 1013.0 1.9 N 5.3 NNE 0.0 618.7
08:35 13.9 13.5 84.0 1013.0 1.9 E 5.6 NW 0.0 379.7
08:40 14.0 13.5 85.9 1013.0 4.2 N 9.2 N 0.0 387.7
08:45 14.0 13.2 84.5 1013.0 1.5 SE 4.6 NNW 0.0 513.9
08:50 14.0 12.9 85.1 1013.0 2.6 NNE 5.6 NNW 0.0 614.3
08:55 14.2 12.7 84.4 1012.9 2.8 NNE 7.8 N 0.0 676.1
09:00 14.4 12.7 84.5 1012.9 4.5 NNE 7.1 NNE 0.0 676.1
09:05 14.7 12.9 83.4 1012.9 3.7 ENE 8.8 SE 0.0 680.1
09:10 15.4 13.0 81.6 1012.9 3.6 SE 7.1 SSE 0.0 719.4
09:15 16.1 13.3 78.2 1012.9 3.7 S 8.8 SSW 0.0 759.9
09:20 16.3 13.8 75.9 1012.9 4.5 SW 9.2 WSW 0.0 802.0
09:25 16.8 14.6 76.1 1012.9 2.4 NW 6.7 NNW 0.0 863.0
09:30 17.4 15.6 70.9 1012.9 3.4 WNW 8.8 NNW 0.0 812.0
09:35 17.2 16.1 73.1 1012.9 6.1 N 9.2 NW 0.0 812.0
09:40 17.1 16.4 72.5 1012.9 3.2 N 6.7 N 0.0 830.0
09:45 17.6 17.0 72.2 1012.9 5.7 N 9.9 N 0.0 888.0
09:50 17.9 17.8 71.5 1012.9 4.7 NE 9.5 NE 0.0 907.0
09:55 18.0 18.4 69.8 1012.8 1.5 ENE 7.1 NNE 0.0 456.7
10:00 18.0 18.5 68.4 1012.8 4.8 NNW 8.5 WNW 0.0 402.2
10:05 17.9 18.5 68.2 1012.8 3.5 NW 9.9 S 0.0 852.0
10:10 18.6 18.9 65.4 1012.8 7.1 NW 14.5 WSW 0.0 850.0
10:15 18.9 19.2 60.0 1012.8 10.5 WSW 20.5 W 0.0 762.3
10:20 18.6 19.1 57.6 1012.8 9.3 W 18.4 WSW 0.0 565.4
10:25 19.1 19.0 56.5 1012.6 11.9 WSW 24.3 W 0.0 858.0
10:30 19.1 19.3 54.8 1012.6 16.0 WSW 26.1 W 0.0 861.0
10:35 19.4 19.5 55.7 1012.5 9.7 WSW 24.0 W 0.0 867.0
10:40 19.5 19.9 52.9 1012.5 14.9 WSW 27.5 WSW 0.0 874.0
10:45 19.4 20.1 54.0 1012.3 16.2 SW 30.7 WSW 0.0 880.0
10:50 19.6 20.4 54.5 1012.3 15.8 WSW 29.3 WSW 0.0 885.0
10:55 19.5 20.7 55.0 1012.2 19.2 WSW 36.0 WSW 0.0 887.0
11:00 19.5 20.9 55.5 1012.2 15.0 WSW 25.8 WSW 0.0 893.0
11:05 19.7 21.3 55.7 1012.2 15.8 W 31.1 SW 0.0 898.0
11:10 19.9 21.9 56.0 1012.2 15.2 SW 28.2 SSW 0.0 906.0
Máxima 19.9 21.9 100.0 1013.7 19.2 WSW 36.0 WSW 0.1 907.0
Mínima 7.4 7.2 52.9 1012.2
Total 0.1